Wind_Speed
9 9 8 7 7 7 7 6 6 7 8 10 10 11 11 10 9 7 5 4 4 3 2 2 3 4 6 7 8 9 9 9 9 8 8 8 7 7 6 6 6 6 6 6 5 5 5 5 5
9 9 8 8 7 7 7 7 6 6 9 9 10 11 11 10 9 7 5 4 3 3 2 1 2 4 5 6 7 8 8 8 7 7 7 6 6 6 5 5 5 5 5 5 5 5 5 5 5
9 9 8 8 8 7 6 7 7 6 8 9 10 11 11 10 10 8 5 4 3 2 1 0 2 3 4 5 6 7 7 7 7 6 6 5 5 5 5 5 4 4 4 5 5 4 4 4 4
10 9 9 8 8 7 6 7 7 6 7 8 10 12 11 11 10 8 6 4 3 3 2 0 1 3 4 4 5 6 6 6 6 6 5 5 4 4 4 4 4 4 4 4 4 4 4 4 4
10 9 9 9 8 7 7 7 6 6 7 8 10 10 11 10 10 8 6 4 3 3 2 1 1 3 3 4 4 5 5 5 5 5 4 4 4 3 4 3 3 3 4 4 4 4 3 3 3
11 10 10 9 9 8 8 7 6 6 7 9 9 9 10 10 9 7 6 4 3 2 2 2 2 3 3 4 4 5 5 5 5 4 3 3 3 3 3 3 3 3 3 3 3 3 3 3 3
12 11 10 9 9 10 8 8 7 7 7 8 9 9 9 10 9 7 5 5 4 3 3 3 3 3 4 4 4 4 4 5 4 4 3 2 2 2 2 2 2 3 3 3 3 3 2 2 2
13 12 11 10 10 10 10 9 9 7 6 7 8 9 9 10 9 7 6 5 4 3 2 2 3 4 4 4 4 4 4 4 4 3 3 2 2 2 1 1 2 2 3 3 3 2 2 2 2
14 13 12 11 11 11 11 10 10 8 6 6 7 9 10 9 8 7 6 4 4 3 2 2 3 5 5 5 5 5 5 4 3 3 3 2 2 1 1 1 1 2 3 3 3 2 2 2 2
14 13 13 13 13 13 13 12 11 9 7 6 7 8 8 8 8 7 6 5 5 4 3 3 4 5 6 6 6 6 5 5 4 3 3 2 1 1 0 0 0 1 2 2 2 2 1 1 1
14 14 15 15 14 14 13 12 11 10 7 6 6 7 8 9 9 8 7 6 5 4 4 3 5 6 7 7 6 6 6 6 5 4 3 3 2 1 1 1 1 1 1 2 2 2 1 1 1
15 16 17 16 16 15 13 12 11 10 9 7 6 6 7 8 9 9 8 7 6 5 5 5 5 7 7 8 7 7 7 7 6 5 4 4 3 2 2 2 1 1 1 1 2 2 2 1 1
17 17 18 18 17 16 14 13 12 11 10 9 7 8 8 9 10 10 9 7 6 6 6 6 6 7 8 8 8 8 7 7 7 6 5 5 5 3 2 2 2 1 1 0 1 1 1 1 1
19 19 20 19 18 17 16 15 13 12 11 10 9 9 9 10 10 10 9 8 7 6 6 6 7 8 9 9 9 9 9 8 8 7 7 6 6 4 3 3 3 2 2 1 1 1 1 1 1
21 20 20 20 19 19 17 15 13 13 12 10 9 9 9 10 9 9 9 8 7 7 6 6 7 8 9 10 10 10 10 10 9 8 8 8 7 6 4 4 3 3 2 2 1 1 1 1 1
22 20 20 20 21 20 19 16 15 14 13 10 9 9 9 10 10 10 9 8 8 7 7 7 7 8 9 11 11 10 11 11 10 9 9 9 8 7 6 5 4 3 3 2 1 1 1 1 1
22 20 20 22 21 22 20 17 17 16 14 12 10 9 9 10 10 11 11 9 9 8 8 7 7 8 9 10 11 11 12 12 11 11 11 11 9 8 7 6 5 5 4 3 3 2 1 0 0
22 21 20 22 23 22 20 19 19 17 15 13 12 11 10 11 11 11 10 9 9 9 9 8 9 8 9 11 10 11 13 12 12 12 12 12 11 10 9 8 7 6 6 5 4 3 2 2 1
24 22 21 21 23 23 22 21 20 18 15 14 13 11 11 11 12 12 10 10 10 10 11 10 10 10 10 11 11 12 13 13 13 14 13 12 12 11 10 9 8 7 6 5 5 4 3 2 2
25 23 22 22 24 24 22 21 20 18 16 14 12 11 11 12 12 12 12 11 10 11 11 11 12 12 11 12 12 13 12 13 13 13 13 13 13 12 11 10 9 8 6 6 6 5 4 4 3
26 23 23 24 25 25 24 22 21 19 17 15 13 12 11 11 12 12 11 11 11 12 12 13 13 12 12 12 12 12 12 13 13 13 13 14 14 14 12 11 11 9 8 7 7 6 6 5 4
25 24 25 26 26 26 25 23 20 19 18 16 14 12 12 11 12 12 12 12 12 13 14 14 14 13 13 12 12 12 12 13 14 14 14 15 15 14 13 12 12 10 9 8 8 7 7 7 6
25 27 27 28 28 28 27 24 21 19 17 16 14 13 12 12 12 13 13 12 13 12 12 13 14 14 14 14 14 13 12 14 14 14 15 15 14 14 14 13 13 12 11 10 10 8 8 7 7
29 30 30 30 30 30 26 25 22 20 18 16 16 15 13 12 12 12 12 12 12 11 12 13 14 14 15 14 14 14 14 14 14 14 15 15 15 15 15 15 15 14 13 12 11 10 9 8 8
32 32 32 31 31 29 26 26 22 20 18 17 17 16 14 13 13 12 11 11 11 11 12 13 14 14 15 15 15 15 16 16 14 15 15 15 16 16 16 17 16 16 15 14 13 11 11 10 9
32 32 32 31 30 27 26 25 22 20 19 18 17 16 14 14 13 12 11 11 11 12 11 11 13 14 14 15 16 16 16 16 16 16 16 16 17 18 18 18 18 17 16 15 14 13 12 12 11
32 32 31 31 30 28 26 24 21 20 19 19 17 16 15 14 14 14 12 12 11 12 12 12 12 14 14 15 16 17 17 17 17 17 17 18 17 18 19 18 18 18 17 16 15 15 14 14 13
33 32 32 32 30 28 26 23 20 18 18 17 16 15 14 14 14 14 13 12 11 12 12 12 13 13 14 15 15 16 17 17 17 18 17 18 19 19 19 19 19 19 18 18 17 16 16 15 14
34 34 33 31 30 28 25 22 18 17 17 16 15 15 15 14 14 14 13 13 12 11 11 12 12 12 14 15 16 17 17 18 17 17 17 19 20 20 20 20 20 19 19 19 18 17 17 16 15
33 32 32 31 29 27 24 21 19 18 18 17 16 15 15 15 14 14 13 12 12 11 11 12 12 12 13 15 16 17 17 17 17 18 18 18 20 21 21 20 20 20 20 19 18 18 18 17 17
Wind_Direction
339 343 347 348 344 342 342 358 10 26 24 21 20 20 20 17 13 8 8 23 32 39 48 72 95 101 106 107 106 102 98 95 93 89 83 80 78 76 71 65 63 62 60 59 59 58 58 62 66
331 334 339 342 341 340 343 353 0 11 15 13 15 15 15 11 4 1 5 11 19 23 27 69 99 100 107 110 111 109 102 97 96 93 86 81 78 74 69 63 58 58 57 57 55 53 51 52 55
322 323 327 334 335 337 341 347 355 359 10 11 13 12 12 6 360 352 349 352 349 349 343 79 115 112 113 116 117 114 108 102 100 99 93 85 79 72 67 66 63 60 58 55 54 54 54 53 53
312 313 316 323 328 329 330 339 346 356 6 7 9 8 7 3 356 349 343 342 341 327 313 274 147 133 127 124 124 122 117 111 105 100 95 88 82 73 69 66 64 61 57 56 54 53 49 51 54
302 303 307 313 318 313 312 319 332 355 4 8 8 5 2 357 350 346 340 335 326 319 279 245 176 156 145 137 134 132 125 120 112 103 91 84 81 76 71 62 55 52 52 51 47 43 39 41 47
292 295 298 303 303 300 304 310 318 333 349 358 2 1 357 352 344 342 334 328 312 296 263 227 190 173 160 151 146 141 135 127 118 106 93 83 78 75 72 64 47 40 36 34 34 34 37 38 34
284 289 293 296 294 292 295 299 308 326 339 355 354 352 353 348 339 334 319 316 305 285 259 224 196 181 170 161 155 151 144 138 127 115 107 95 81 68 60 53 36 27 26 27 28 27 28 31 33
281 283 285 287 286 287 292 296 308 322 333 345 352 350 346 344 338 329 314 305 299 290 249 212 199 192 183 178 172 166 157 148 140 129 120 117 111 90 64 46 26 25 26 30 23 16 17 24 30
276 278 279 277 277 281 285 287 300 318 324 338 352 350 344 339 333 324 313 303 295 281 245 216 197 195 192 190 186 181 175 165 155 146 137 129 125 108 76 49 37 33 29 31 25 16 11 7 16
270 273 270 269 272 276 278 280 287 307 316 332 344 348 347 341 330 320 307 298 291 276 244 233 205 198 198 199 194 193 190 186 174 165 160 154 141 136 140 191 18 18 24 21 16 9 12 13 23
262 263 262 265 267 272 275 281 288 298 308 326 337 342 340 341 335 324 307 298 289 276 255 241 218 209 207 203 202 201 200 196 187 182 182 181 184 208 218 223 265 294 2 2 14 34 45 39 50
255 255 257 261 264 267 272 280 287 293 298 307 318 328 329 332 331 323 309 298 287 273 263 252 233 219 213 207 205 204 205 200 195 198 203 205 213 223 233 232 242 251 317 3 28 45 55 49 67
249 249 252 257 262 264 267 272 280 286 287 296 309 312 315 316 322 320 311 296 286 275 269 244 227 222 216 211 210 209 205 203 205 208 214 217 217 223 238 234 233 221 240 282 21 54 54 51 66
247 246 250 254 258 259 262 269 276 282 282 285 297 304 304 312 313 315 310 302 287 275 266 244 229 222 217 214 214 216 215 211 212 218 220 219 219 222 228 229 222 216 215 218 188 64 59 69 75
245 246 248 251 254 255 259 265 271 275 275 279 287 294 302 308 308 312 310 299 288 277 266 251 239 230 224 219 218 222 220 217 217 219 224 222 220 218 221 225 224 221 207 197 187 112 81 84 77
245 245 245 249 251 253 256 257 262 267 269 273 278 287 295 297 301 305 301 293 281 271 267 256 243 235 226 221 219 221 219 217 216 218 223 220 219 218 221 225 224 213 203 199 202 198 143 96 69
245 244 242 245 248 251 255 254 255 261 263 267 273 284 288 292 298 300 295 288 279 267 264 253 246 241 228 225 224 223 222 219 219 221 221 218 218 217 221 226 220 213 209 211 212 221 225 239 311
246 243 240 242 247 250 252 253 255 258 259 263 271 280 280 283 290 294 290 282 277 267 260 251 246 246 234 229 228 227 228 225 222 222 219 219 219 218 222 224 216 215 215 217 219 222 233 243 263
240 239 237 238 244 247 250 251 253 256 257 262 268 273 275 281 286 290 287 283 273 263 258 251 246 246 243 232 228 226 227 226 223 222 221 221 218 217 219 219 215 214 217 220 218 221 231 235 252
236 235 234 234 239 244 246 248 251 255 257 258 262 266 270 276 284 290 289 287 276 261 255 250 246 245 242 234 230 227 227 224 218 219 220 218 218 217 219 218 216 213 216 219 220 224 228 236 245
234 232 231 233 237 242 245 247 251 253 253 252 257 264 265 272 281 286 287 283 276 267 256 248 246 240 237 233 232 228 225 219 219 222 221 216 216 217 217 218 216 214 218 220 224 226 228 231 236
229 228 229 230 234 239 244 245 247 250 250 253 259 264 265 268 278 284 283 281 272 265 255 246 240 234 232 234 235 225 219 219 221 224 221 218 217 214 216 219 217 217 219 220 223 227 230 230 234
225 224 225 228 234 238 244 247 245 249 251 255 256 261 264 266 272 273 273 277 274 264 253 241 234 234 233 232 231 225 221 221 224 224 220 218 218 216 216 217 217 219 221 221 224 227 229 226 227
221 223 225 229 235 238 243 247 248 252 257 258 256 258 260 263 266 271 272 275 275 262 249 239 236 236 236 233 226 223 223 224 227 226 222 221 221 220 221 218 218 220 221 222 225 229 227 224 227
221 223 225 229 235 240 242 246 251 254 255 255 257 259 256 259 261 269 273 271 273 264 256 239 236 237 236 234 229 226 225 224 225 225 223 224 224 224 225 223 222 220 221 222 225 229 227 226 228
224 226 229 232 238 241 242 246 251 254 253 253 255 254 253 255 257 264 268 272 271 263 255 240 241 241 239 233 228 226 226 227 228 228 228 227 226 224 222 222 223 222 223 224 226 227 228 229 231
222 225 228 232 237 240 242 247 249 252 253 253 255 254 256 258 255 259 264 269 266 261 254 244 242 239 238 234 231 228 229 229 230 231 233 232 229 226 223 222 223 225 226 227 229 230 232 233 235
221 224 226 230 235 240 243 245 249 250 253 253 251 254 255 258 257 258 264 265 264 260 250 243 241 241 239 238 238 232 231 232 233 234 235 234 232 228 224 223 224 225 227 229 231 232 233 237 239
220 222 226 230 236 240 243 244 247 247 248 249 251 254 255 257 259 256 261 262 261 257 252 249 247 248 246 242 238 234 234 233 234 236 237 234 230 228 228 227 227 228 227 230 234 235 236 239 241
221 224 227 230 235 239 243 243 243 247 250 252 251 252 253 257 257 256 259 259 255 255 254 252 250 251 251 244 238 236 237 236 236 237 237 235 233 233 232 232 232 230 229 231 236 237 238 242 246
Height
5878 5877 5877 5877 5878 5877 5875 5875 5874 5874 5873 5873 5872 5871 5871 5872 5872 5874 5872 5871 5871 5872 5872 5873 5873 5873 5874 5874 5875 5875 5876 5877 5878 5879 5880 5881 5882 5883 5883 5884 5884 5884 5884 5885 5885 5885 5885 5885 5885
5877 5877 5878 5878 5877 5876 5876 5875 5874 5873 5873 5872 5872 5871 5871 5871 5872 5872 5871 5871 5872 5872 5873 5873 5873 5874 5874 5875 5875 5876 5877 5878 5879 5880 5881 5882 5882 5883 5884 5884 5885 5885 5885 5886 5886 5886 5886 5886 5886
5877 5877 5878 5877 5876 5876 5876 5875 5874 5874 5873 5872 5871 5871 5871 5871 5871 5871 5871 5871 5872 5872 5873 5873 5873 5874 5874 5875 5876 5877 5877 5878 5879 5880 5881 5882 5883 5884 5884 5885 5886 5886 5886 5886 5886 5886 5886 5886 5887
5876 5877 5877 5877 5876 5875 5875 5874 5874 5874 5873 5872 5871 5870 5871 5871 5871 5871 5871 5871 5871 5872 5873 5873 5873 5874 5875 5875 5876 5877 5878 5879 5880 5881 5882 5883 5883 5884 5885 5885 5886 5886 5887 5887 5887 5887 5887 5887 5887
5875 5876 5876 5875 5875 5874 5874 5873 5873 5873 5873 5872 5871 5871 5870 5870 5870 5870 5870 5870 5871 5871 5872 5873 5873 5874 5875 5876 5876 5877 5878 5879 5880 5881 5882 5883 5884 5884 5885 5886 5886 5887 5887 5887 5887 5887 5887 5888 5888
5874 5874 5875 5874 5873 5873 5873 5873 5873 5873 5873 5872 5871 5870 5870 5870 5870 5870 5870 5870 5870 5871 5871 5872 5872 5873 5874 5875 5877 5877 5878 5879 5880 5881 5882 5883 5884 5884 5885 5886 5886 5887 5887 5887 5887 5887 5888 5888 5888
5873 5873 5873 5873 5872 5872 5872 5872 5872 5872 5872 5871 5871 5870 5869 5869 5869 5869 5869 5870 5870 5870 5871 5871 5872 5873 5874 5875 5876 5877 5878 5879 5880 5881 5882 5883 5884 5884 5885 5886 5886 5887 5887 5887 5887 5887 5888 5888 5888
5871 5872 5871 5871 5870 5870 5871 5870 5870 5870 5870 5870 5870 5870 5869 5869 5869 5868 5869 5869 5869 5869 5870 5870 5871 5872 5873 5875 5876 5877 5878 5879 5880 5881 5882 5883 5884 5884 5885 5886 5886 5887 5887 5888 5888 5887 5888 5888 5888
5869 5870 5869 5869 5869 5869 5869 5869 5869 5869 5869 5869 5869 5869 5869 5868 5868 5868 5868 5868 5869 5869 5869 5869 5870 5871 5872 5874 5875 5877 5878 5879 5880 5881 5882 5883 5884 5885 5885 5886 5886 5887 5887 5888 5888 5888 5888 5888 5888
5867 5867 5867 5867 5867 5867 5867 5867 5868 5868 5869 5868 5868 5868 5867 5867 5867 5867 5868 5868 5868 5868 5868 5868 5869 5870 5872 5873 5874 5876 5877 5878 5880 5881 5882 5883 5884 5885 5885 5886 5886 5887 5887 5888 5888 5888 5888 5888 5888
5864 5865 5864 5864 5865 5865 5865 5866 5866 5867 5868 5868 5867 5867 5867 5866 5867 5867 5867 5867 5867 5867 5867 5868 5868 5869 5871 5872 5873 5875 5876 5877 5879 5880 5882 5883 5884 5884 5885 5885 5886 5887 5887 5888 5888 5888 5888 5888 5888
5861 5862 5861 5862 5862 5863 5863 5864 5864 5865 5866 5866 5866 5866 5866 5866 5866 5866 5866 5866 5866 5866 5866 5866 5867 5868 5869 5871 5872 5874 5875 5876 5878 5879 5881 5882 5883 5884 5884 5885 5886 5886 5887 5887 5888 5888 5888 5888 5888
5858 5858 5858 5859 5860 5861 5862 5862 5863 5864 5864 5864 5864 5865 5865 5865 5865 5864 5864 5864 5865 5865 5865 5865 5866 5867 5868 5869 5871 5873 5874 5875 5877 5878 5880 5881 5882 5883 5884 5884 5885 5886 5887 5887 5887 5888 5888 5888 5888
5854 5855 5855 5856 5857 5858 5860 5860 5861 5862 5863 5863 5863 5863 5864 5864 5863 5863 5862 5862 5863 5863 5863 5863 5864 5865 5866 5868 5869 5871 5872 5874 5875 5877 5878 5880 5881 5882 5883 5884 5885 5886 5886 5887 5887 5888 5888 5888 5888
5850 5851 5852 5854 5855 5856 5857 5858 5859 5860 5861 5861 5861 5862 5862 5862 5861 5861 5860 5860 5861 5861 5862 5862 5863 5864 5865 5866 5868 5869 5870 5872 5874 5875 5877 5878 5880 5881 5882 5883 5884 5885 5886 5887 5887 5888 5888 5888 5888
5846 5848 5850 5851 5852 5853 5855 5857 5857 5858 5858 5859 5859 5860 5860 5860 5859 5859 5858 5858 5859 5859 5860 5861 5861 5862 5863 5864 5865 5867 5868 5870 5872 5874 5875 5877 5878 5880 5881 5882 5883 5884 5885 5886 5887 5888 5888 5888 5888
5842 5844 5846 5848 5848 5849 5851 5853 5854 5855 5855 5856 5857 5858 5858 5858 5857 5857 5856 5856 5856 5857 5858 5858 5859 5860 5860 5861 5863 5865 5866 5868 5870 5872 5873 5875 5877 5879 5880 5881 5882 5883 5885 5886 5887 5887 5888 5888 5888
5838 5840 5842 5844 5844 5845 5847 5849 5850 5851 5853 5854 5854 5855 5855 5856 5855 5855 5854 5854 5854 5855 5855 5856 5857 5858 5859 5859 5861 5863 5864 5866 5868 5870 5871 5873 5875 5877 5879 5880 5881 5883 5884 5885 5886 5886 5887 5887 5888
5832 5835 5838 5840 5840 5842 5843 5845 5847 5848 5850 5851 5852 5852 5853 5853 5853 5852 5851 5851 5852 5852 5853 5854 5855 5856 5856 5857 5859 5860 5862 5864 5866 5868 5869 5871 5874 5876 5877 5879 5880 5882 5883 5884 5885 5885 5886 5887 5887
5827 5831 5834 5836 5836 5838 5840 5842 5843 5845 5847 5848 5849 5849 5850 5850 5850 5849 5849 5849 5849 5850 5850 5851 5852 5853 5854 5855 5856 5857 5859 5861 5864 5866 5867 5869 5872 5874 5876 5878 5879 5880 5882 5883 5884 5884 5885 5886 5886
5823 5827 5830 5831 5832 5833 5836 5838 5840 5842 5843 5845 5845 5846 5847 5847 5847 5846 5846 5846 5846 5846 5847 5848 5849 5850 5851 5852 5853 5854 5856 5859 5861 5863 5865 5867 5869 5872 5874 5876 5877 5879 5880 5881 5882 5883 5884 5885 5885
5819 5822 5824 5825 5827 5829 5832 5834 5837 5838 5840 5841 5842 5843 5843 5844 5844 5843 5843 5843 5843 5843 5843 5844 5845 5846 5848 5849 5851 5852 5854 5857 5859 5861 5863 5865 5867 5869 5871 5873 5875 5877 5879 5880 5881 5882 5883 5884 5884
5814 5816 5818 5820 5822 5825 5827 5829 5833 5834 5836 5838 5839 5840 5840 5841 5841 5840 5840 5840 5840 5839 5839 5840 5842 5843 5845 5847 5848 5850 5852 5854 5856 5859 5860 5862 5865 5867 5869 5871 5873 5875 5877 5878 5879 5881 5882 5883 5883
5807 5810 5813 5815 5817 5820 5824 5826 5829 5831 5833 5835 5835 5836 5837 5838 5838 5837 5837 5837 5836 5836 5837 5838 5839 5841 5842 5844 5846 5848 5850 5852 5854 5856 5858 5860 5862 5864 5867 5869 5871 5873 5875 5876 5878 5879 5880 5881 5882
5801 5805 5808 5810 5813 5817 5820 5821 5825 5827 5829 5831 5832 5832 5833 5834 5835 5835 5834 5834 5834 5834 5834 5835 5836 5837 5839 5841 5843 5845 5847 5849 5851 5853 5855 5857 5859 5862 5864 5866 5868 5870 5872 5874 5876 5877 5878 5880 5881
5796 5800 5805 5808 5810 5814 5816 5817 5822 5823 5825 5826 5827 5829 5830 5831 5831 5831 5831 5831 5831 5832 5832 5832 5833 5834 5836 5838 5840 5842 5844 5846 5849 5850 5852 5854 5856 5858 5861 5863 5865 5868 5870 5872 5873 5875 5876 5878 5879
5791 5795 5800 5803 5806 5809 5811 5814 5817 5818 5820 5822 5824 5825 5826 5827 5828 5828 5828 5828 5828 5829 5830 5830 5831 5832 5833 5835 5837 5839 5841 5843 5845 5847 5849 5851 5854 5856 5858 5860 5862 5865 5867 5869 5871 5873 5874 5875 5877
5787 5791 5794 5797 5801 5804 5807 5810 5813 5815 5816 5818 5820 5822 5823 5824 5825 5825 5825 5825 5825 5826 5827 5827 5829 5830 5831 5832 5834 5835 5838 5840 5842 5844 5846 5848 5850 5852 5855 5857 5859 5862 5864 5866 5868 5870 5871 5873 5874
5781 5785 5789 5793 5797 5800 5803 5809 5810 5812 5813 5815 5817 5818 5819 5820 5821 5822 5822 5822 5823 5823 5824 5825 5826 5827 5828 5829 5831 5833 5835 5837 5838 5840 5842 5844 5846 5849 5851 5853 5856 5858 5860 5863 5865 5867 5868 5870 5871
5776 5781 5785 5789 5793 5796 5799 5806 5806 5808 5809 5811 5813 5814 5816 5817 5818 5819 5819 5820 5820 5821 5821 5822 5823 5824 5825 5826 5827 5829 5831 5833 5835 5837 5839 5840 5843 5845 5847 5850 5852 5854 5857 5859 5861 5863 5865 5866 5868